Edwards AFB North Base, CA

4:08 AM PDT on August 24, 2019 (GMT -0700)
Edwards AFB North Base

Weather History for K9L2 - May, 2019

Change the Weather History Date:

Saturday, May 11, 2019

  Actual Average (WUND) Record (WUND)
Temperature  
Mean Temperature 64 °F -  
Max Temperature 77 °F - - (-1)
Min Temperature 52 °F - - (-1)
Degree Days  
Heating Degree Days 2    
Growing Degree Days 14 (Base 50)    
Moisture  
Dew Point 51 °F    
Average Humidity 68    
Maximum Humidity 95    
Minimum Humidity 34    
Precipitation  
Precipitation 0.01 in - - ()
Sea Level Pressure  
Sea Level Pressure 29.90 in    
Wind  
Wind Speed 6 mph (SSE)    
Max Wind Speed 15 mph    
Max Gust Speed 17 mph    
Visibility 9 miles    
Events Rain , Thunderstorm    
Averages and records for this station are not official NWS values.
T = Trace of Precipitation, MM = Missing Value Source: NWS Daily Summary

Daily Weather History Graph

Daily Weather History Graph

Search for Another Location

Airport or City:

Astronomy

May. 11, 2019 Rise Set
Actual Time 5:51 AM PDT 7:44 PM PDT
Civil Twilight 5:23 AM PDT 8:12 PM PDT
Nautical Twilight 4:49 AM PDT 8:46 PM PDT
Astronomical Twilight 4:13 AM PDT 9:22 PM PDT
Moon 12:05 PM PDT (5/11) 1:28 AM PDT (5/11)
Length of Visible Light 14h 49m
Length of Day
13h 53m
Waxing Crescent, 47% of the Moon is Illuminated
May 11
Waxing Crescent
May 11
First Quarter
May 18
Full
May 26
Last Quarter
Jun 3
New

Hourly Weather History & Observations

Time (PDT) Temp. Dew Point Humidity Pressure Visibility Wind Dir Wind Speed Gust Speed Precip Events Conditions
12:13 AM 55.4 °F 51.8 °F 88% 29.90 in 10.0 mi South 6.9 mph - N/A   Scattered Clouds
12:58 AM 53.8 °F 52.2 °F 94% 29.91 in 10.0 mi South 6.9 mph - N/A   Partly Cloudy
1:58 AM 52.5 °F 51.3 °F 95% 29.90 in 10.0 mi SE 3.5 mph - N/A   Mostly Cloudy
2:58 AM 52.5 °F 51.1 °F 95% 29.92 in 10.0 mi SSE 8.1 mph - N/A   Mostly Cloudy
3:13 AM 53.6 °F 51.8 °F 94% 29.91 in 9.0 mi South 5.8 mph - N/A Rain Light Rain
3:22 AM 53.6 °F 51.8 °F 94% 29.91 in 9.0 mi South 4.6 mph - N/A   Mostly Cloudy
3:58 AM 53.2 °F 51.6 °F 94% 29.90 in 10.0 mi WNW 6.9 mph - 0.00 in   Mostly Cloudy
4:58 AM 53.1 °F 51.4 °F 94% 29.91 in 10.0 mi East 5.8 mph - N/A   Mostly Cloudy
5:58 AM 52.5 °F 51.1 °F 95% 29.92 in 10.0 mi ESE 3.5 mph - N/A   Mostly Cloudy
6:58 AM 53.4 °F 51.4 °F 93% 29.93 in 10.0 mi SSE 6.9 mph - N/A   Mostly Cloudy
7:43 AM 55.4 °F 51.8 °F 88% 29.95 in 10.0 mi SSW 3.5 mph - N/A   Scattered Clouds
8:58 AM 60.6 °F 52.2 °F 74% 29.94 in 10.0 mi West 3.5 mph - N/A   Partly Cloudy
9:58 AM 64.9 °F 48.6 °F 55% 29.94 in 9.0 mi West 4.6 mph - N/A   Clear
10:58 AM 69.3 °F 48.2 °F 47% 29.93 in 9.0 mi NNE 3.5 mph - N/A   Partly Cloudy
11:58 AM 73.2 °F 47.8 °F 41% 29.92 in 8.0 mi North 6.9 mph - N/A   Clear
12:58 PM 73.0 °F 49.8 °F 44% 29.90 in 9.0 mi Calm Calm - N/A   Partly Cloudy
1:43 PM 71.6 °F 50.0 °F 46% 29.88 in 8.0 mi WNW 6.9 mph - N/A   Mostly Cloudy
1:58 PM 74.3 °F 46.8 °F 37% 29.88 in 9.0 mi Calm Calm - N/A   Partly Cloudy
2:15 PM 75.2 °F 51.8 °F 44% 29.87 in 8.0 mi SSE 13.8 mph 17.3 mph N/A Thunderstorm Partly Cloudy
2:30 PM 71.6 °F 50.0 °F 46% 29.87 in 8.0 mi SSE 15.0 mph - N/A Rain , Thunderstorm Light Thunderstorms and Rain
2:35 PM 71.6 °F 51.8 °F 50% 29.88 in 8.0 mi ESE 15.0 mph - N/A Rain , Thunderstorm Light Thunderstorms and Rain
2:45 PM 68.0 °F 55.4 °F 64% 29.88 in 7.0 mi SE 15.0 mph - N/A   Mostly Cloudy
2:58 PM 70.2 °F 53.6 °F 56% 29.88 in 10.0 mi SSE 12.7 mph - 0.01 in   Scattered Clouds
3:58 PM 75.7 °F 48.7 °F 38% 29.84 in 9.0 mi SE 5.8 mph - N/A   Partly Cloudy
4:58 PM 75.9 °F 45.7 °F 34% 29.82 in 9.0 mi South 3.5 mph - N/A   Clear
8:58 PM 67.8 °F 48.2 °F 49% 29.86 in 9.0 mi SSW 8.1 mph - N/A   Clear
9:58 PM 63.3 °F 53.6 °F 71% 29.88 in 9.0 mi SSE 6.9 mph - N/A   Clear
10:58 PM 62.4 °F 52.2 °F 69% 29.88 in 10.0 mi SSW 3.5 mph - N/A   Clear
11:58 PM 59.0 °F 53.2 °F 81% 29.88 in 10.0 mi East 4.6 mph - N/A   Clear